Flag for Poland Weather past 2 weeks in Białystok, Poland

Now
56 °F

Fog.


Feels Like: 56 °F
Forecast: 66 / 91 °F
Wind: No wind

Location: Bialystok

Current Time: Aug 4, 2015 at 5:46:25 AM

Latest Report: Aug 4, 2015 at 5:00 AM


Visibility: 7 mi

Pressure: 30.13 "Hg

Humidity: 96%

Dew point: 55 °F

Location of BiałystokLocation

Historic Weather in Białystok — Graph

°F

Białystok temperature yesterday

Maximum temperature yesterday: 86 °F (at 5:00 PM)
Minimum temperature yesterday: 52 °F (at 3:00 AM)
Average temperature yesterday: 70 °F

Past Weeks' High & Low Weather Summary

 TemperatureHumidityPressure
High86 °F (Aug 3, 5:00 PM)99% (Jul 21, 5:00 AM)30.24 "Hg (Jul 21, 5:00 AM)
Low43 °F (Aug 2, 3:00 AM)34% (Aug 2, 3:00 PM)29.62 "Hg (Jul 28, 3:00 PM)
Average64 °F70%29.91 "Hg
* Reported Jul 20 4:00 AM — Aug 4 4:00 AM, Białystok, Weather by CustomWeather, © 2015

Note: Actual official high and low records may vary slightly from our data, if they occured in-between our weather recording intervals... More about our weather records

Advertising

Białystok weather history for previous 24 hours

 ConditionsComfort  
Time TempWeatherWind HumidityBarometerVisibility
4:00 AM
Tue, Aug 4
57 °FFog.No wind95%30.13 "Hg7 mi
3:00 AM58 °FClear.No wind93%30.13 "Hg7 mi
2:00 AM59 °FClear.1 mph91%30.13 "Hg7 mi
1:00 AM60 °FClear.1 mph90%30.13 "Hg8 mi
12:00 AM61 °FClear.1 mph89%30.13 "Hg9 mi
10:00 PM
Mon, Aug 3
64 °FPassing clouds.No wind84%30.13 "Hg12 mi
9:00 PM67 °FPassing clouds.1 mph78%30.11 "Hg15 mi
8:00 PM75 °FScattered clouds.1 mph59%30.10 "Hg22 mi
7:00 PM82 °FPassing clouds.2 mph39%30.09 "Hg19 mi
6:00 PM85 °FScattered clouds.1 mph41%30.08 "Hg19 mi
5:00 PM86 °FScattered clouds.1 mph35%30.08 "Hg19 mi
4:00 PM85 °FScattered clouds.2 mph35%30.09 "Hg19 mi
3:00 PM84 °FScattered clouds.1 mph38%30.10 "Hg19 mi
2:00 PM84 °FScattered clouds.2 mph38%30.11 "Hg19 mi
1:00 PM83 °FScattered clouds.1 mph40%30.11 "Hg22 mi
12:00 PM80 °FScattered clouds.1 mph47%30.12 "Hg19 mi
11:00 AM78 °FScattered clouds.1 mph51%30.13 "Hg18 mi
10:00 AM74 °FScattered clouds.1 mph58%30.13 "Hg12 mi
9:00 AM68 °FPartly sunny.1 mph66%30.13 "Hg14 mi
8:00 AM64 °FOvercast.1 mph72%30.14 "Hg17 mi
7:00 AM61 °FPartly sunny.2 mph77%30.14 "Hg17 mi
6:00 AM58 °FPartly sunny.1 mph82%30.15 "Hg17 mi
5:00 AM54 °FPartly sunny.1 mph92%30.15 "Hg16 mi
Weather by CustomWeather, © 2015

See weather overviewHow to use our weather pages